{"data":{"norad_id":65028,"intl_designator":"2025-161P","name":"STARLINK-34807","alt_names":[],"object_type":"PAYLOAD","status":"ACTIVE","operator":null,"country":"US","launch_date":"2025-07-30","launch_site_code":"AFWTR","launch_vehicle":null,"mission":null,"orbit_class":"UNKNOWN","rcs_meters":null,"size_class":null,"mass_kg":null,"dimensions":null,"purposes":["comms"],"wikipedia_slug":null,"has_3d_model":false,"image_url":null,"decayed_at":null,"tle_current":{"epoch":"2026-05-24T15:31:05.568672Z","epoch_age_seconds":101536,"freshness":"FRESH","line1":"1 65028U 25161P   26144.64659223  .00020578  00000+0  70499-3 0  9993","line2":"2 65028  53.1587 301.0699 0000829  76.1688 283.9406 15.30198524 46960","mean_motion":15.30198524,"eccentricity":8.29e-5,"inclination_deg":53.1587,"raan_deg":301.0699,"arg_perigee_deg":76.1688,"mean_anomaly_deg":283.9406,"bstar":0.00070499,"rev_number":4696,"period_min":94.105436478646,"perigee_km":474.65133324091,"apogee_km":475.78761974472,"semimajor_km":6853.3564764928,"source":"CELESTRAK","updated_at":"2026-05-25T13:38:20.670714Z"}}}